Time,TemperatureF,DewpointF,PressureIn,WindDirection,WindDirectionDegrees,WindSpeedMPH,WindSpeedGustMPH,Humidity,HourlyPrecipIn,Conditions,Clouds,dailyrainin,SoftwareType,DateUTC
2017-09-22 00:13:00,58.7,-42.0,30.15,NNE,13,9.0,10.0,1,0.00,,,0.00,weatherlink.com 1.10,2017-09-22 04:13:00,
2017-09-22 00:28:00,58.9,-42.0,30.15,NNE,26,9.0,11.0,1,0.00,,,0.00,weatherlink.com 1.10,2017-09-22 04:28:00,
2017-09-22 00:43:00,58.7,-17.0,30.15,NNE,27,10.0,13.0,4,0.00,,,0.00,weatherlink.com 1.10,2017-09-22 04:43:00,
2017-09-22 00:58:00,58.7,4.0,30.15,NNE,33,9.0,12.0,11,0.00,,,0.00,weatherlink.com 1.10,2017-09-22 04:58:00,
2017-09-22 01:13:00,58.4,-6.0,30.15,NNE,30,10.0,12.0,7,0.00,,,0.00,weatherlink.com 1.10,2017-09-22 05:13:00,
2017-09-22 01:28:00,58.1,-23.0,30.15,NE,40,11.0,14.0,3,0.00,,,0.00,weatherlink.com 1.10,2017-09-22 05:28:00,
2017-09-22 01:43:00,57.9,-31.0,30.16,NE,38,10.0,13.0,2,0.00,,,0.00,weatherlink.com 1.10,2017-09-22 05:43:00,
2017-09-22 01:58:00,57.4,-43.0,30.16,NNE,22,10.0,12.0,1,0.00,,,0.00,weatherlink.com 1.10,2017-09-22 05:58:00,
2017-09-22 02:13:00,57.1,-43.0,30.16,North,5,13.0,13.0,1,0.00,,,0.00,weatherlink.com 1.10,2017-09-22 06:13:00,
2017-09-22 02:28:00,57.0,-43.0,30.15,NNE,17,13.0,14.0,1,0.00,,,0.00,weatherlink.com 1.10,2017-09-22 06:28:00,
2017-09-22 02:43:00,56.6,-44.0,30.15,NNE,30,10.0,13.0,1,0.00,,,0.00,weatherlink.com 1.10,2017-09-22 06:43:00,
2017-09-22 02:58:00,56.3,-44.0,30.14,NNE,21,14.0,15.0,1,0.00,,,0.00,weatherlink.com 1.10,2017-09-22 06:58:00,
2017-09-22 03:13:00,55.9,-44.0,30.14,NNE,28,13.0,14.0,1,0.00,,,0.00,weatherlink.com 1.10,2017-09-22 07:13:00,
2017-09-22 03:28:00,55.5,-44.0,30.14,NNE,17,12.0,15.0,1,0.00,,,0.00,weatherlink.com 1.10,2017-09-22 07:28:00,
2017-09-22 03:43:00,55.4,-44.0,30.14,NE,38,12.0,15.0,1,0.00,,,0.00,weatherlink.com 1.10,2017-09-22 07:43:00,
2017-09-22 03:58:00,54.6,-45.0,30.14,NE,36,14.0,15.0,1,0.00,,,0.00,weatherlink.com 1.10,2017-09-22 07:58:00,
2017-09-22 04:14:00,54.4,-45.0,30.14,NE,37,12.0,16.0,1,0.00,,,0.00,weatherlink.com 1.10,2017-09-22 08:14:00,
2017-09-22 04:29:00,54.2,-45.0,30.14,NNE,22,11.0,14.0,1,0.00,,,0.00,weatherlink.com 1.10,2017-09-22 08:29:00,
2017-09-22 04:44:00,53.9,-45.0,30.14,NNE,30,10.0,14.0,1,0.00,,,0.00,weatherlink.com 1.10,2017-09-22 08:44:00,
2017-09-22 04:59:00,53.9,-45.0,30.14,NE,37,9.0,13.0,1,0.00,,,0.00,weatherlink.com 1.10,2017-09-22 08:59:00,
2017-09-22 05:14:00,53.7,-46.0,30.14,NE,35,10.0,14.0,1,0.00,,,0.00,weatherlink.com 1.10,2017-09-22 09:14:00,
2017-09-22 05:29:00,53.2,-46.0,30.13,NNE,30,13.0,14.0,1,0.00,,,0.00,weatherlink.com 1.10,2017-09-22 09:29:00,
2017-09-22 05:44:00,53.0,-46.0,30.14,NNE,20,14.0,14.0,1,0.00,,,0.00,weatherlink.com 1.10,2017-09-22 09:44:00,
2017-09-22 05:59:00,52.9,-46.0,30.14,NNE,19,13.0,17.0,1,0.00,,,0.00,weatherlink.com 1.10,2017-09-22 09:59:00,
2017-09-22 06:14:00,52.9,-46.0,30.14,NNE,15,14.0,17.0,1,0.00,,,0.00,weatherlink.com 1.10,2017-09-22 10:14:00,
2017-09-22 06:29:00,53.2,-46.0,30.14,NNE,13,12.0,18.0,1,0.00,,,0.00,weatherlink.com 1.10,2017-09-22 10:29:00,
2017-09-22 06:44:00,52.8,-46.0,30.15,NNE,26,12.0,17.0,1,0.00,,,0.00,weatherlink.com 1.10,2017-09-22 10:44:00,
2017-09-22 06:59:00,53.2,-46.0,30.15,NNE,32,11.0,13.0,1,0.00,,,0.00,weatherlink.com 1.10,2017-09-22 10:59:00,
2017-09-22 07:14:00,53.7,-46.0,30.15,NE,36,10.0,13.0,1,0.00,,,0.00,weatherlink.com 1.10,2017-09-22 11:14:00,
2017-09-22 07:29:00,53.6,-46.0,30.16,NNE,24,10.0,13.0,1,0.00,,,0.00,weatherlink.com 1.10,2017-09-22 11:29:00,
2017-09-22 07:44:00,53.8,-45.0,30.16,NNE,17,11.0,12.0,1,0.00,,,0.00,weatherlink.com 1.10,2017-09-22 11:44:00,
2017-09-22 07:59:00,54.2,-45.0,30.16,NNE,13,12.0,14.0,1,0.00,,,0.00,weatherlink.com 1.10,2017-09-22 11:59:00,
2017-09-22 08:16:00,55.3,-45.0,30.15,NNE,21,11.0,15.0,1,0.00,,,0.00,weatherlink.com 1.10,2017-09-22 12:16:00,
2017-09-22 08:30:00,55.9,-44.0,30.15,NNE,26,14.0,17.0,1,0.00,,,0.00,weatherlink.com 1.10,2017-09-22 12:30:00,
2017-09-22 09:00:00,56.8,-44.0,30.15,NNE,19,14.0,17.0,1,0.00,,,0.00,weatherlink.com 1.10,2017-09-22 13:00:00,
2017-09-22 09:15:00,57.5,-43.0,30.14,NNE,20,11.0,15.0,1,0.00,,,0.00,weatherlink.com 1.10,2017-09-22 13:15:00,
2017-09-22 09:30:00,58.4,-43.0,30.15,NNE,24,11.0,14.0,1,0.00,,,0.00,weatherlink.com 1.10,2017-09-22 13:30:00,
2017-09-22 09:45:00,59.2,-42.0,30.15,NNE,26,13.0,14.0,1,0.00,,,0.00,weatherlink.com 1.10,2017-09-22 13:45:00,
2017-09-22 10:00:00,60.9,-41.0,30.15,North,355,14.0,16.0,1,0.00,,,0.00,weatherlink.com 1.10,2017-09-22 14:00:00,
2017-09-22 10:15:00,60.9,-41.0,30.14,NNE,32,11.0,14.0,1,0.00,,,0.00,weatherlink.com 1.10,2017-09-22 14:15:00,
2017-09-22 10:30:00,61.1,-7.0,30.14,NNE,19,11.0,13.0,6,0.00,,,0.00,weatherlink.com 1.10,2017-09-22 14:30:00,
2017-09-22 10:45:00,61.8,27.0,30.14,NE,41,12.0,14.0,27,0.00,,,0.00,weatherlink.com 1.10,2017-09-22 14:45:00,
2017-09-22 11:00:00,61.6,-1.0,30.14,NNE,28,10.0,12.0,8,0.00,,,0.00,weatherlink.com 1.10,2017-09-22 15:00:00,
2017-09-22 11:15:00,62.3,19.0,30.13,NNE,30,11.0,12.0,19,0.00,,,0.00,weatherlink.com 1.10,2017-09-22 15:15:00,
2017-09-22 11:31:00,62.5,24.0,30.13,NE,46,9.0,13.0,23,0.00,,,0.00,weatherlink.com 1.10,2017-09-22 15:31:00,
2017-09-22 11:46:00,63.3,41.0,30.13,NE,54,7.0,15.0,44,0.00,,,0.00,weatherlink.com 1.10,2017-09-22 15:46:00,
2017-09-22 12:01:00,62.9,30.0,30.14,NE,54,7.0,13.0,29,0.00,,,0.00,weatherlink.com 1.10,2017-09-22 16:01:00,
2017-09-22 12:16:00,63.4,39.0,30.13,NE,44,7.0,12.0,40,0.00,,,0.00,weatherlink.com 1.10,2017-09-22 16:16:00,
2017-09-22 12:31:00,63.2,32.0,30.13,NNE,33,9.0,13.0,31,0.00,,,0.00,weatherlink.com 1.10,2017-09-22 16:31:00,
2017-09-22 12:46:00,63.5,34.0,30.12,NE,36,10.0,13.0,34,0.00,,,0.00,weatherlink.com 1.10,2017-09-22 16:46:00,
2017-09-22 13:01:00,63.7,42.0,30.12,NE,37,6.0,11.0,46,0.00,,,0.00,weatherlink.com 1.10,2017-09-22 17:01:00,
2017-09-22 13:16:00,64.2,42.0,30.11,NE,42,6.0,11.0,44,0.00,,,0.00,weatherlink.com 1.10,2017-09-22 17:16:00,